Weather History for KP08 - February, 2014

Change the Weather History Date:

Sunday, February 16, 2014

  Actual Average (KCGZ) Record (KCGZ)
Temperature  
Mean Temperature 67 °F -  
Max Temperature 84 °F 65 °F 82 °F (2014)
Min Temperature 50 °F 40 °F 30 °F (2013)
Cooling Degree Days 2    
Growing Degree Days 17 (Base 50)    
Moisture  
Dew Point 24 °F    
Average Humidity 21    
Maximum Humidity 33    
Minimum Humidity 10    
Precipitation  
Precipitation 0.00 in - - ()
Sea Level Pressure  
Sea Level Pressure 30.01 in    
Wind  
Wind Speed 6 mph (ESE)    
Max Wind Speed 12 mph    
Max Gust Speed -    
Visibility 10 miles    
Events      
Averages and records for this station are not official NWS values.
T = Trace of Precipitation, MM = Missing Value Source: NWS Daily Summary

Daily Weather History Graph

Daily Weather History Graph

Search for Another Location

Airport or City:

Trip Planner

Search our weather history database for the weather conditions in past years. The results will help you decide how hot, cold, wet, or windy it might be!

Date:

Astronomy

Feb. 16, 2014 Rise Set
Actual Time 7:07 AM MST 6:12 PM MST
Civil Twilight 6:42 AM MST 6:37 PM MST
Nautical Twilight 6:13 AM MST 7:06 PM MST
Astronomical Twilight 5:45 AM MST 7:34 PM MST
Moon 8:03 PM MST (2/16) 7:47 AM MST (2/16)
Length of Visible Light 11h 54m
Length of Day
11h 04m
Full, 97% of the Moon is Illuminated
Feb 16
Full
Feb 22
Last Quarter
Mar 1
New
Mar 8
First Quarter
Mar 16
Full

Hourly Weather History & Observations

Time (MST) Temp. Dew Point Humidity Pressure Visibility Wind Dir Wind Speed Gust Speed Precip Events Conditions
12:10 AM 57.2 °F 24.8 °F 29% 30.01 in 10.0 mi SE 6.9 mph - N/A   Clear
12:35 AM 59.0 °F 24.8 °F 27% 30.00 in 10.0 mi SE 8.1 mph - N/A   Clear
12:55 AM 59.0 °F 23.0 °F 25% 30.00 in 10.0 mi ESE 8.1 mph - N/A   Clear
1:15 AM 59.0 °F 23.0 °F 25% 30.00 in 10.0 mi East 8.1 mph - N/A   Clear
1:30 AM 59.0 °F 23.0 °F 25% 30.00 in 10.0 mi East 9.2 mph - N/A   Clear
1:55 AM 59.0 °F 21.2 °F 23% 30.00 in 10.0 mi ESE 6.9 mph - N/A   Clear
2:15 AM 57.2 °F 21.2 °F 25% 30.00 in 10.0 mi ESE 6.9 mph - N/A   Clear
2:35 AM 57.2 °F 21.2 °F 25% 29.99 in 10.0 mi ESE 6.9 mph - N/A   Clear
2:55 AM 59.0 °F 21.2 °F 23% 29.99 in 10.0 mi ESE 8.1 mph - N/A   Clear
3:15 AM 57.2 °F 21.2 °F 25% 29.99 in 10.0 mi ESE 8.1 mph - N/A   Clear
3:35 AM 57.2 °F 21.2 °F 25% 29.98 in 10.0 mi ESE 8.1 mph - N/A   Clear
3:55 AM 55.4 °F 21.2 °F 26% 29.98 in 10.0 mi ESE 8.1 mph - N/A   Clear
4:15 AM 55.4 °F 21.2 °F 26% 29.98 in 10.0 mi ESE 6.9 mph - N/A   Clear
4:35 AM 53.6 °F 23.0 °F 30% 29.98 in 10.0 mi ESE 8.1 mph - N/A   Clear
4:55 AM 51.8 °F 23.0 °F 33% 29.98 in 10.0 mi Calm Calm - N/A   Clear
5:15 AM 53.6 °F 23.0 °F 30% 29.99 in 10.0 mi SE 4.6 mph - N/A   Clear
5:35 AM 53.6 °F 21.2 °F 28% 29.99 in 10.0 mi ESE 4.6 mph - N/A   Clear
5:55 AM 51.8 °F 21.2 °F 30% 29.99 in 10.0 mi ESE 6.9 mph - N/A   Clear
6:15 AM 51.8 °F 21.2 °F 30% 29.99 in 10.0 mi SE 8.1 mph - N/A   Clear
6:35 AM 51.8 °F 21.2 °F 30% 29.99 in 10.0 mi ESE 8.1 mph - N/A   Clear
6:55 AM 51.8 °F 21.2 °F 30% 30.00 in 10.0 mi ESE 9.2 mph - N/A   Clear
7:15 AM 50.0 °F 21.2 °F 32% 30.00 in 10.0 mi ESE 9.2 mph - N/A   Clear
7:35 AM 51.8 °F 23.0 °F 33% 30.01 in 10.0 mi ESE 6.9 mph - N/A   Clear
7:55 AM 53.6 °F 23.0 °F 30% 30.01 in 10.0 mi ESE 5.8 mph - N/A   Clear
8:15 AM 57.2 °F 24.8 °F 29% 30.03 in 10.0 mi Calm Calm - N/A   Clear
8:35 AM 59.0 °F 24.8 °F 27% 30.04 in 10.0 mi Calm Calm - N/A   Clear
8:55 AM 62.6 °F 24.8 °F 24% 30.04 in 10.0 mi Calm Calm - N/A   Clear
9:15 AM 64.4 °F 24.8 °F 22% 30.05 in 10.0 mi Calm Calm - N/A   Clear
9:35 AM 68.0 °F 24.8 °F 20% 30.05 in 10.0 mi Calm Calm - N/A   Clear
9:55 AM 69.8 °F 23.0 °F 17% 30.05 in 10.0 mi Calm Calm - N/A   Clear
10:15 AM 71.6 °F 24.8 °F 17% 30.05 in 10.0 mi Calm Calm - N/A   Clear
10:35 AM 73.4 °F 24.8 °F 16% 30.05 in 10.0 mi Calm Calm - N/A   Clear
10:55 AM 75.2 °F 23.0 °F 14% 30.05 in 10.0 mi Calm Calm - N/A   Clear
11:15 AM 77.0 °F 23.0 °F 13% 30.05 in 10.0 mi Calm Calm - N/A   Clear
11:35 AM 78.8 °F 23.0 °F 13% 30.05 in 10.0 mi Calm Calm - N/A   Clear
11:55 AM 80.6 °F 24.8 °F 13% 30.03 in 10.0 mi Calm Calm - N/A   Clear
12:15 PM 80.6 °F 24.8 °F 13% 30.03 in 10.0 mi Calm Calm - N/A   Clear
12:35 PM 80.6 °F 24.8 °F 13% 30.02 in 10.0 mi Calm Calm - N/A   Clear
12:55 PM 82.4 °F 26.6 °F 13% 30.00 in 10.0 mi Variable 6.9 mph - N/A   Clear
1:15 PM 82.4 °F 24.8 °F 12% 29.99 in 10.0 mi WSW 8.1 mph - N/A   Clear
1:35 PM 82.4 °F 24.8 °F 12% 29.98 in 10.0 mi WSW 4.6 mph - N/A   Clear
1:55 PM 82.4 °F 28.4 °F 14% 29.98 in 10.0 mi WSW 6.9 mph - N/A   Clear
2:15 PM 82.4 °F 24.8 °F 12% 29.98 in 10.0 mi West 9.2 mph - N/A   Clear
2:35 PM 82.4 °F 21.2 °F 10% 29.98 in 10.0 mi West 8.1 mph - N/A   Clear
2:55 PM 84.2 °F 23.0 °F 11% 29.98 in 10.0 mi WNW 9.2 mph - N/A   Clear
3:15 PM 82.4 °F 23.0 °F 11% 29.97 in 10.0 mi NW 8.1 mph - N/A   Clear
3:35 PM 82.4 °F 23.0 °F 11% 29.97 in 10.0 mi WNW 6.9 mph - N/A   Clear
3:55 PM 82.4 °F 23.0 °F 11% 29.97 in 10.0 mi WNW 4.6 mph - N/A   Clear
4:15 PM 82.4 °F 23.0 °F 11% 29.97 in 10.0 mi NW 4.6 mph - N/A   Clear
4:35 PM 82.4 °F 23.0 °F 11% 29.98 in 10.0 mi WNW 5.8 mph - N/A   Clear
4:55 PM 82.4 °F 23.0 °F 11% 29.98 in 10.0 mi NW 4.6 mph - N/A   Clear
5:15 PM 80.6 °F 23.0 °F 12% 29.98 in 10.0 mi NNW 5.8 mph - N/A   Clear
5:35 PM 78.8 °F 28.4 °F 16% 29.98 in 10.0 mi NNW 10.4 mph - N/A   Clear
5:55 PM 77.0 °F 28.4 °F 17% 29.99 in 10.0 mi NNW 6.9 mph - N/A   Clear
6:15 PM 75.2 °F 28.4 °F 18% 30.00 in 10.0 mi NNW 6.9 mph - N/A   Clear
6:35 PM 73.4 °F 26.6 °F 18% 30.01 in 10.0 mi NW 5.8 mph - N/A   Clear
6:55 PM 73.4 °F 28.4 °F 19% 30.01 in 10.0 mi NW 4.6 mph - N/A   Clear
7:15 PM 71.6 °F 28.4 °F 20% 30.01 in 10.0 mi North 4.6 mph - N/A   Clear
7:35 PM 69.8 °F 26.6 °F 20% 30.01 in 10.0 mi East 4.6 mph - N/A   Clear
7:55 PM 68.0 °F 26.6 °F 21% 30.02 in 10.0 mi East 6.9 mph - N/A   Clear
8:15 PM 66.2 °F 26.6 °F 23% 30.02 in 10.0 mi ESE 5.8 mph - N/A   Clear
8:35 PM 66.2 °F 26.6 °F 23% 30.02 in 10.0 mi ESE 9.2 mph - N/A   Clear
8:55 PM 64.4 °F 24.8 °F 22% 30.02 in 10.0 mi SE 11.5 mph - N/A   Clear
9:15 PM 64.4 °F 24.8 °F 22% 30.03 in 10.0 mi ESE 4.6 mph - N/A   Clear
9:35 PM 64.4 °F 24.8 °F 22% 30.03 in 10.0 mi East 5.8 mph - N/A   Clear
9:55 PM 62.6 °F 24.8 °F 24% 30.04 in 10.0 mi East 8.1 mph - N/A   Clear
10:15 PM 62.6 °F 24.8 °F 24% 30.04 in 10.0 mi ESE 8.1 mph - N/A   Clear
10:25 PM 62.6 °F 24.8 °F 24% 30.05 in 10.0 mi ESE 8.1 mph - N/A   Clear
10:50 PM 60.8 °F 24.8 °F 25% 30.05 in 10.0 mi ESE 6.9 mph - N/A   Clear
11:10 PM 60.8 °F 24.8 °F 25% 30.05 in 10.0 mi NE 3.5 mph - N/A   Clear
11:55 PM 59.0 °F 24.8 °F 27% 30.05 in 10.0 mi ESE 8.1 mph - N/A   Clear